Iridium 68 - Orbit

View from above orbital plane
View from above orbital plane
View from above satellite
View from above satellite

Ground track
Ground track

The orbit data is extracted from the following two-line orbital elements,

1 25291U 98021G   13170.39202711  .00000226  00000-0  73802-4 0  3275
2 25291 086.3988 113.7852 0002376 102.7943 257.3519 14.34219727795906
Epoch (UTC): 19 June 2013 09:24:31
Eccentricity: 0.0002376
inclination: 86.3988°
perigee height: 776 km
apogee height: 779 km
right ascension of ascending node: 113.7852°
argument of perigee: 102.7943°
revolutions per day: 14.34219727
mean anomaly at epoch: 257.3519°
orbit number at epoch: 79590

The dashed part of the orbit path shows where the satellite is in the earth's shadow,  

Developed and maintained by Chris Peat, Heavens-Above GmbH. Please read the updated FAQ before sending e-mail. Imprint. DLR